C/2005 P3 ( SWAN )

Japanese version
Home page
Total 6,336 html files since Dec. 4, 1995
Updated on November 20, 2005

---------------------------------------------------------------------

* Profile

Discovery Date August 4, 2005
Magnitude
Discoverer H. Sato (Sukagawa, Fukushima-ken, Japan), M. Suzuki (Utsunomiya, Tochigi, Japan), M. Mattiazzo (Adelaide, S. Australia), M. Jaeger (Vienna, Austria), V. Bezugly (Dnepropetrovsk, Ukraine)

* Pictures

* Orbital Elements

T 2005 Aug.  9.7453 TT                                  MPC
q   0.525791             (2000.0)            P               Q
z  +0.023832       Peri.   32.1488      -0.3849363      +0.2473365
                   Node   242.7724      -0.9035435      +0.0955034
e   0.987469       Incl.   89.7049      +0.1882370      +0.9642115
>From 54 observations 2005 Aug. 26-Sept. 24.

* Finding Charts

* Magnitudes Graph

        m1 = 11.0 + 5 log d + 10.0 log r  [  ,63]  (             - 2005 Oct. 11)
        m1 =  5.3 + 5 log d + 50   log r  [63,  ]  (2005 Oct. 11 -             )

---------------------------------------------------------------------

The orbital elements are published on M.P.E.C. 2005-T70.
The charts are made with StellaNavigator Ver.2.0 for Windows (AstroArts / ASCII).
The magnitudes graphs are made with Comet for Windows.

---------------------------------------------------------------------

Copyright(C) 1995-2008 Seiichi Yoshida (comet@aerith.net). All rights reserved.